Maxwell AFB, AL

2:26 AM CST on January 20, 2018 (GMT -0600)
Maxwell Air Force Base

Weather History for KMXF - December, 2013

Change the Weather History Date:

Sunday, December 29, 2013

  Actual Average Record
Temperature  
Mean Temperature 45 °F -  
Max Temperature 53 °F 57 °F 71 °F (1996)
Min Temperature 37 °F 37 °F 27 °F (2010)
Degree Days  
Heating Degree Days 20    
Moisture  
Dew Point 43 °F    
Average Humidity 96    
Maximum Humidity 100    
Minimum Humidity 71    
Precipitation  
Precipitation 0.01 in - - ()
Sea Level Pressure  
Sea Level Pressure 30.03 in    
Wind  
Wind Speed 3 mph (West)    
Max Wind Speed 8 mph    
Max Gust Speed -    
Visibility 6 miles    
Events Fog    
Averages and records for this station are not official NWS values.
T = Trace of Precipitation, MM = Missing Value Source: NWS Daily Summary

Daily Weather History Graph

Daily Weather History Graph

Search for Another Location

Airport or City:

Trip Planner

Search our weather history database for the weather conditions in past years. The results will help you decide how hot, cold, wet, or windy it might be!

Date:

Astronomy

Dec. 29, 2013 Rise Set
Actual Time 6:46 AM CST 4:49 PM CST
Civil Twilight 6:19 AM CST 5:16 PM CST
Nautical Twilight 5:48 AM CST 5:46 PM CST
Astronomical Twilight 5:18 AM CST 6:16 PM CST
Moon 3:33 AM CST (12/29) 2:22 PM CST (12/29)
Length of Visible Light 10h 57m
Length of Day
10h 03m
Waning Crescent, 11% of the Moon is Illuminated
Dec 29
Waning Crescent
Jan 1
New
Jan 7
First Quarter
Jan 15
Full
Jan 23
Last Quarter

Hourly Weather History & Observations

Time (CST) Temp. Windchill Dew Point Humidity Pressure Visibility Wind Dir Wind Speed Gust Speed Precip Events Conditions
12:13 AM 44.6 °F 43.1 °F 44.6 °F 100% 29.90 in 6.0 mi North 3.5 mph - N/A   Overcast
12:23 AM 44.6 °F 43.1 °F 44.6 °F 100% 29.89 in 7.0 mi North 3.5 mph - N/A   Overcast
12:28 AM 44.6 °F 42.2 °F 44.6 °F 100% 29.88 in 7.0 mi NNE 4.6 mph - N/A   Overcast
12:48 AM 44.6 °F 40.7 °F 44.6 °F 100% 29.91 in 4.0 mi WNW 6.9 mph - N/A   Overcast
12:57 AM 44.6 °F 42.2 °F 44.6 °F 100% 29.92 in 3.0 mi WNW 4.6 mph - N/A   Light Drizzle
12:58 AM 45.3 °F 43.0 °F 45.1 °F 99% 29.93 in 3.0 mi WNW 4.6 mph - N/A   Light Drizzle
1:03 AM 44.6 °F 42.2 °F 44.6 °F 100% 29.92 in 2.5 mi WNW 4.6 mph - N/A   Light Drizzle
1:08 AM 44.6 °F 41.4 °F 44.6 °F 100% 29.93 in 2.5 mi WNW 5.8 mph - N/A   Light Drizzle
1:13 AM 44.6 °F 41.4 °F 44.6 °F 100% 29.93 in 3.0 mi WNW 5.8 mph - N/A   Light Drizzle
1:15 AM 44.6 °F 41.4 °F 44.6 °F 100% 29.94 in 3.0 mi WNW 5.8 mph - N/A   Overcast
1:20 AM 46.4 °F 42.9 °F 44.6 °F 93% 29.94 in 4.0 mi WNW 6.9 mph - N/A   Overcast
1:30 AM 44.6 °F 42.2 °F 44.6 °F 100% 29.91 in 4.0 mi NW 4.6 mph - N/A   Overcast
1:33 AM 44.6 °F 42.2 °F 44.6 °F 100% 29.91 in 4.0 mi NW 4.6 mph - N/A   Light Drizzle
1:43 AM 44.6 °F 42.2 °F 44.6 °F 100% 29.91 in 4.0 mi WNW 4.6 mph - N/A   Overcast
1:58 AM 45.5 °F - 45.5 °F 100% 29.93 in 6.0 mi Calm Calm - 0.01 in   Overcast
2:23 AM 46.4 °F - 46.4 °F 100% 29.93 in 10.0 mi WSW 1.2 mph - N/A   Overcast
2:33 AM 46.4 °F - 46.4 °F 100% 29.93 in 10.0 mi Calm Calm - N/A   Overcast
2:58 AM 46.4 °F 44.3 °F 46.4 °F 100% 29.93 in 10.0 mi NW 4.6 mph - N/A   Overcast
3:08 AM 46.4 °F - 46.4 °F 100% 29.91 in 10.0 mi NNW 2.3 mph - N/A   Overcast
3:28 AM 46.4 °F - 46.4 °F 100% 29.92 in 10.0 mi WNW 1.2 mph - N/A   Overcast
3:38 AM 46.4 °F - 46.4 °F 100% 29.91 in 10.0 mi Calm Calm - N/A   Overcast
3:43 AM 46.4 °F - 46.4 °F 100% 29.91 in 10.0 mi WNW 2.3 mph - N/A   Overcast
3:58 AM 45.7 °F - 45.7 °F 100% 29.91 in 10.0 mi West 1.2 mph - N/A   Overcast
3:59 AM 46.4 °F - 46.4 °F 100% 29.90 in 10.0 mi WNW 1.2 mph - N/A   Light Drizzle
4:23 AM 46.4 °F - 46.4 °F 100% 29.92 in 10.0 mi Calm Calm - N/A   Overcast
4:54 AM 46.4 °F - 46.4 °F 100% 29.94 in 10.0 mi Calm Calm - N/A   Overcast
4:58 AM 45.9 °F - 45.9 °F 100% 29.94 in 10.0 mi Calm Calm - 0.00 in   Overcast
5:23 AM 46.4 °F 44.3 °F 46.4 °F 100% 29.93 in 10.0 mi WNW 4.6 mph - N/A   Overcast
5:58 AM 45.9 °F - 45.5 °F 99% 29.96 in 10.0 mi WNW 1.2 mph - N/A   Overcast
6:03 AM 46.4 °F - 46.4 °F 100% 29.93 in 10.0 mi North 1.2 mph - N/A   Overcast
6:33 AM 46.4 °F 45.2 °F 46.4 °F 100% 29.98 in 10.0 mi West 3.5 mph - N/A   Overcast
6:43 AM 46.4 °F - 46.4 °F 100% 29.98 in 10.0 mi WNW 2.3 mph - N/A   Overcast
6:58 AM 45.7 °F 42.7 °F 45.7 °F 100% 29.99 in 10.0 mi WNW 5.8 mph - N/A   Overcast
7:03 AM 46.4 °F 45.2 °F 46.4 °F 100% 29.99 in 10.0 mi WNW 3.5 mph - N/A   Overcast
7:13 AM 46.4 °F 43.5 °F 46.4 °F 100% 30.00 in 10.0 mi WNW 5.8 mph - N/A   Overcast
7:58 AM 45.9 °F 41.7 °F 45.9 °F 100% 30.03 in 10.0 mi WNW 8.1 mph - N/A   Overcast
8:58 AM 46.8 °F - 46.6 °F 99% 30.07 in 10.0 mi West 3.5 mph - N/A   Overcast
9:58 AM 47.7 °F - 47.5 °F 99% 30.07 in 10.0 mi NW 6.9 mph - N/A   Overcast
10:48 AM 48.2 °F - 46.4 °F 93% 30.06 in 10.0 mi NW 4.6 mph - N/A   Overcast
10:58 AM 49.1 °F - 46.2 °F 90% 30.07 in 10.0 mi WNW 8.1 mph - N/A   Overcast
11:28 AM 50.0 °F - 46.4 °F 87% 30.05 in 10.0 mi WNW 6.9 mph - N/A   Overcast
11:58 AM 49.6 °F - 46.4 °F 89% 30.04 in 10.0 mi NW 5.8 mph - N/A   Overcast
12:23 PM 50.0 °F - 46.4 °F 87% 30.03 in 10.0 mi Variable 3.5 mph - N/A   Overcast
12:28 PM 50.0 °F - 46.4 °F 87% 30.03 in 10.0 mi WNW 5.8 mph - N/A   Overcast
12:58 PM 50.0 °F - 46.4 °F 87% 30.03 in 10.0 mi West 3.5 mph - N/A   Overcast
1:03 PM 50.0 °F - 46.4 °F 87% 30.02 in 10.0 mi Variable 4.6 mph - N/A   Overcast
1:43 PM 50.0 °F - 46.4 °F 87% 30.02 in 10.0 mi West 3.5 mph - N/A   Overcast
1:48 PM 51.8 °F - 46.4 °F 82% 30.02 in 10.0 mi WNW 3.5 mph - N/A   Overcast
1:58 PM 51.3 °F - 45.7 °F 81% 30.03 in 10.0 mi WNW 4.6 mph - N/A   Overcast
2:08 PM 51.8 °F - 44.6 °F 76% 30.02 in 10.0 mi WNW 4.6 mph - N/A   Overcast
2:18 PM 51.8 °F - 44.6 °F 76% 30.02 in 10.0 mi NNW 4.6 mph - N/A   Mostly Cloudy
2:23 PM 51.8 °F - 44.6 °F 76% 30.02 in 10.0 mi Variable 4.6 mph - N/A   Mostly Cloudy
2:58 PM 53.4 °F - 44.4 °F 72% 30.02 in 10.0 mi West 4.6 mph - N/A   Overcast
3:18 PM 51.8 °F - 44.6 °F 76% 30.01 in 10.0 mi West 4.6 mph - N/A   Mostly Cloudy
3:38 PM 51.8 °F - 42.8 °F 71% 30.02 in 10.0 mi WNW 5.8 mph - N/A   Scattered Clouds
3:58 PM 51.4 °F - 43.7 °F 75% 30.04 in 10.0 mi NW 4.6 mph - N/A   Clear
4:58 PM 48.6 °F - 43.7 °F 83% 30.04 in 10.0 mi WNW 2.3 mph - N/A   Clear
5:58 PM 45.0 °F - 43.5 °F 95% 30.06 in 10.0 mi NW 1.2 mph - N/A   Clear
6:58 PM 43.3 °F - 43.0 °F 99% 30.09 in 7.0 mi Calm Calm - N/A   Clear
7:28 PM 41.0 °F - 41.0 °F 100% 30.09 in 2.5 mi South 2.3 mph - N/A   Clear
7:33 PM 41.0 °F 39.0 °F 41.0 °F 100% 30.09 in 0.8 mi South 3.5 mph - N/A   Clear
7:38 PM 41.0 °F 39.0 °F 41.0 °F 100% 30.09 in 0.5 mi South 3.5 mph - N/A Fog Fog
7:43 PM 41.0 °F - 41.0 °F 100% 30.09 in 0.8 mi South 2.3 mph - N/A   Clear
7:48 PM 41.0 °F - 41.0 °F 100% 30.09 in 0.5 mi Calm Calm - N/A Fog Fog
7:53 PM 41.0 °F - 41.0 °F 100% 30.09 in 0.5 mi Calm Calm - N/A Fog Fog
7:58 PM 41.0 °F - 41.0 °F 100% 30.10 in 1.2 mi SW 1.2 mph - N/A   Clear
8:03 PM 41.0 °F - 41.0 °F 100% 30.09 in 3.0 mi SSW 2.3 mph - N/A   Clear
8:08 PM 41.0 °F - 41.0 °F 100% 30.09 in 1.8 mi SSW 2.3 mph - N/A   Clear
8:13 PM 41.0 °F - 41.0 °F 100% 30.09 in 1.8 mi SSW 2.3 mph - N/A   Clear
8:18 PM 41.0 °F - 41.0 °F 100% 30.09 in 2.0 mi SW 2.3 mph - N/A   Clear
8:23 PM 39.2 °F - 39.2 °F 100% 30.10 in 2.5 mi SW 2.3 mph - N/A   Clear
8:28 PM 39.2 °F - 39.2 °F 100% 30.10 in 2.5 mi WSW 2.3 mph - N/A   Clear
8:33 PM 39.2 °F - 39.2 °F 100% 30.10 in 1.2 mi West 2.3 mph - N/A   Clear
8:38 PM 39.2 °F - 39.2 °F 100% 30.10 in 1.0 mi Calm Calm - N/A   Clear
8:43 PM 39.2 °F - 39.2 °F 100% 30.10 in 1.2 mi Calm Calm - N/A   Clear
8:48 PM 41.0 °F - 39.2 °F 93% 30.11 in 1.8 mi Calm Calm - N/A   Clear
8:53 PM 41.0 °F - 41.0 °F 100% 30.11 in 1.5 mi South 1.2 mph - N/A   Clear
8:58 PM 41.0 °F - 39.2 °F 93% 30.12 in 0.8 mi South 2.3 mph - N/A   Clear
9:03 PM 39.2 °F - 39.2 °F 100% 30.11 in 0.5 mi Calm Calm - N/A Fog Fog
9:08 PM 39.2 °F - 39.2 °F 100% 30.11 in 0.5 mi Calm Calm - N/A Fog Fog
9:13 PM 39.2 °F - 39.2 °F 100% 30.11 in 0.8 mi Calm Calm - N/A   Clear
9:23 PM 39.2 °F - 39.2 °F 100% 30.11 in 0.8 mi South 1.2 mph - N/A   Clear
9:28 PM 39.2 °F - 39.2 °F 100% 30.11 in 0.5 mi South 1.2 mph - N/A Fog Fog
9:33 PM 39.2 °F - 39.2 °F 100% 30.11 in 0.8 mi SSW 2.3 mph - N/A   Clear
9:38 PM 39.2 °F - 39.2 °F 100% 30.11 in 1.5 mi SW 2.3 mph - N/A   Clear
9:43 PM 39.2 °F - 39.2 °F 100% 30.11 in 3.0 mi SW 1.2 mph - N/A   Clear
9:48 PM 37.4 °F - 37.4 °F 100% 30.11 in 2.0 mi South 1.2 mph - N/A   Clear
9:53 PM 39.2 °F - 37.4 °F 93% 30.11 in 1.0 mi Calm Calm - N/A   Clear
9:58 PM 39.2 °F - 39.2 °F 100% 30.12 in 1.0 mi Calm Calm - N/A   Clear
10:03 PM 39.2 °F - 39.2 °F 100% 30.11 in 1.0 mi Calm Calm - N/A   Clear
10:08 PM 41.0 °F - 39.2 °F 93% 30.11 in 1.0 mi Calm Calm - N/A   Clear
10:13 PM 41.0 °F - 39.2 °F 93% 30.10 in 2.5 mi Calm Calm - N/A   Clear
10:18 PM 39.2 °F - 39.2 °F 100% 30.10 in 8.0 mi Calm Calm - N/A   Clear
10:48 PM 37.4 °F - 37.4 °F 100% 30.10 in 1.8 mi South 2.3 mph - N/A   Clear
10:53 PM 37.4 °F - 37.4 °F 100% 30.10 in 1.2 mi South 2.3 mph - N/A   Clear
10:58 PM 37.6 °F - 37.2 °F 99% 30.11 in 1.2 mi South 2.3 mph - N/A   Clear
11:03 PM 37.4 °F - 37.4 °F 100% 30.10 in 2.0 mi West 1.2 mph - N/A   Clear
11:08 PM 39.2 °F - 39.2 °F 100% 30.10 in 3.0 mi West 1.2 mph - N/A   Clear
11:33 PM 39.2 °F - 37.4 °F 93% 30.10 in 2.5 mi Calm Calm - N/A   Clear
11:38 PM 39.2 °F - 37.4 °F 93% 30.10 in 1.0 mi Calm Calm - N/A   Clear
11:43 PM 37.4 °F - 37.4 °F 100% 30.10 in 0.8 mi SW 2.3 mph - N/A   Clear
11:48 PM 37.4 °F - 37.4 °F 100% 30.10 in 1.2 mi SW 2.3 mph - N/A   Clear
11:53 PM 37.4 °F - 37.4 °F 100% 30.10 in 4.0 mi WSW 2.3 mph - N/A   Clear
11:58 PM 37.8 °F - 37.6 °F 99% 30.11 in 4.0 mi WNW 1.2 mph - N/A   Clear